Simultaneous Nadir Overpasses (SNOs) Predictions

Prediction of SNOs between METOP-C and LANDSAT-8 Satellite Orbit:

Table of predicted SNOs for the next 14.0 days since TLE Epoch: 4/4/2020
Index Date (METOP-C) Time (METOP-C) Lat,Lon (METOP-C) SZA (METOP-C ) Date (LANDSAT-8) Time (LANDSAT-8) Lat,Lon (LANDSAT-8) SZA (LANDSAT-8 ) Distance(km) Time Diff (sec)
1 04/06/2020 06:40:28 -81.05, -62.07 103.76 04/06/2020 06:41:41 -81.04, -62.22 103.75 2.48 73
2 04/06/2020 07:31:08 81.07, 105.79 76.30 04/06/2020 07:31:06 81.07, 105.82 76.30 0.55 2
3 04/06/2020 08:21:35 -81.22, -81.91 103.10 04/06/2020 08:20:21 -81.34, -82.14 103.07 13.41 74
4 04/09/2020 02:14:52 -81.04, 4.10 104.82 04/09/2020 02:15:55 -81.03, 4.06 104.80 0.78 63
5 04/09/2020 03:05:32 81.06, 171.95 75.24 04/09/2020 03:05:20 81.06, 172.07 75.24 2.15 12
6 04/11/2020 21:49:15 -81.04, 70.63 105.82 04/11/2020 21:50:08 -81.04, 70.70 105.79 1.26 53
7 04/11/2020 22:39:54 81.08,-121.17 74.29 04/11/2020 22:39:33 81.07,-121.32 74.26 2.67 21
8 04/14/2020 17:23:38 -81.03, 136.78 106.85 04/14/2020 17:24:21 -81.03, 136.97 106.81 3.28 43
9 04/14/2020 18:14:16 81.08, -54.68 73.30 04/14/2020 18:13:45 81.08, -54.71 73.29 0.64 31
10 04/17/2020 12:58:00 -81.05,-156.33 107.76 04/17/2020 12:58:34 -81.05,-156.40 107.75 1.20 34




NCC Satellite Simultaneous Nadir Overpasses (SNOs) Prediction Service
